IQ1GE Weather Reports


Display with metric or nautical units.
time (UTC)temp
F
wind
direction
speed
MPH
gust
MPH
rain 1hr
in
rain 24hr
in
rain mn
in
humidity
%
barometer
mb
20260831105430 83 226 0.0 0.0 0.00 0.00 0.00 66 1017.7
20260831104930 83 211 0.0 0.0 0.00 0.00 0.00 66 1017.7
20260831104433 83 206 0.0 0.0 0.00 0.00 0.00 66 1017.7
20260831103927 83 154 0.0 0.0 0.00 0.00 0.00 67 1017.7
20260831103427 83 240 0.0 0.0 0.00 0.00 0.00 67 1017.7
20260831102933 83 205 0.0 0.0 0.00 0.00 0.00 66 1017.7
20260831102427 83 183 0.0 0.0 0.00 0.00 0.00 66 1017.6
20260831101927 84 195 0.0 0.0 0.00 0.00 0.00 67 1017.5
20260831101430 83 220 0.0 0.0 0.00 0.00 0.00 68 1017.5
20260831100927 83 235 0.0 0.0 0.00 0.00 0.00 68 1017.5
20260831100430 82 175 0.0 0.0 0.00 0.00 0.00 68 1017.5
20260831095933 82 233 0.0 0.0 0.00 0.00 0.00 69 1017.5
20260831095427 82 218 0.0 0.0 0.00 0.00 0.00 69 1017.6
20260831094927 82 210 0.0 0.0 0.00 0.00 0.00 68 1017.5
20260831094427 83 247 0.0 0.0 0.00 0.00 0.00 68 1017.6
20260831093936 83 238 0.0 0.0 0.00 0.00 0.00 69 1017.6
20260831093427 82 243 0.0 0.0 0.00 0.00 0.00 69 1017.6
20260831092927 82 253 0.0 0.0 0.00 0.00 0.00 69 1017.6
20260831092427 82 162 0.0 0.0 0.00 0.00 0.00 68 1017.5
20260831091927 83 183 0.0 0.0 0.00 0.00 0.00 68 1017.5
20260831091433 82 217 0.0 0.0 0.00 0.00 0.00 69 1017.5
20260831090927 82 195 0.0 0.0 0.00 0.00 0.00 69 1017.5
20260831090430 82 229 0.0 0.0 0.00 0.00 0.00 69 1017.5
20260831085933 82 231 0.0 0.0 0.00 0.00 0.00 68 1017.5
20260831085436 83 202 0.0 0.0 0.00 0.00 0.00 67 1017.5
20260831084927 83 199 0.0 0.0 0.00 0.00 0.00 66 1017.5
20260831084427 83 187 0.0 0.0 0.00 0.00 0.00 65 1017.6
20260831083930 83 132 0.0 0.0 0.00 0.00 0.00 65 1017.6
20260831083433 82 212 0.0 0.0 0.00 0.00 0.00 65 1017.6
20260831082927 82 212 0.0 0.0 0.00 0.00 0.00 66 1017.6
20260831082427 82 212 0.0 0.0 0.00 0.00 0.00 67 1017.5
20260831081930 82 213 0.0 0.0 0.00 0.00 0.00 68 1017.5
20260831081427 81 198 0.0 0.0 0.00 0.00 0.00 68 1017.5
20260831080927 81 199 0.0 0.0 0.00 0.00 0.00 69 1017.4
20260831080427 81 185 0.0 0.0 0.00 0.00 0.00 69 1017.4
20260831075930 81 122 0.0 0.0 0.00 0.00 0.00 70 1017.5
20260831075433 81 93 0.0 0.0 0.00 0.00 0.00 71 1017.4
20260831074927 80 68 0.0 0.0 0.00 0.00 0.00 72 1017.3
20260831074430 79 68 0.0 0.0 0.00 0.00 0.00 73 1017.3
20260831073927 79 35 0.0 0.0 0.00 0.00 0.00 74 1017.2
20260831073433 78 35 0.0 0.0 0.00 0.00 0.00 73 1017.2
20260831072936 78 35 0.0 0.0 0.00 0.00 0.00 74 1017.1
20260831072427 78 36 0.0 0.0 0.00 0.00 0.00 74 1017.1
20260831071927 78 36 0.0 0.0 0.00 0.00 0.00 74 1017.1
20260831071433 77 36 0.0 0.0 0.00 0.00 0.00 74 1017.1
20260831070930 77 35 0.0 0.0 0.00 0.00 0.00 74 1017.1
20260831070427 77 38 0.0 0.0 0.00 0.00 0.00 73 1017.0
20260831065927 77 83 0.0 0.0 0.00 0.00 0.00 73 1017.0
20260831065433 77 359 0.0 0.0 0.00 0.00 0.00 74 1016.8
20260831064930 77 64 0.0 0.0 0.00 0.00 0.00 73 1016.8
20260831064430 76 77 0.0 0.0 0.00 0.00 0.00 73 1016.9
20260831063933 76 89 0.0 0.0 0.00 0.00 0.00 72 1016.9
20260831063427 76 83 0.0 0.0 0.00 0.00 0.00 72 1016.8
20260831062927 76 76 0.0 0.0 0.00 0.00 0.00 72 1016.9
20260831062430 76 123 0.0 0.0 0.00 0.00 0.00 73 1016.9
20260831061934 76 102 0.0 0.0 0.00 0.00 0.00 73 1016.9
20260831061431 75 83 0.0 0.0 0.00 0.00 0.00 73 1016.8
20260831060927 75 115 0.0 0.0 0.00 0.00 0.00 74 1016.8
20260831060428 75 112 0.0 0.0 0.00 0.00 0.00 75 1016.9
20260831055930 75 93 0.0 0.0 0.00 0.00 0.00 76 1016.9
20260831055427 75 122 0.0 0.0 0.00 0.00 0.00 76 1016.7
20260831054927 75 80 0.0 0.0 0.00 0.00 0.00 75 1016.7
20260831054427 75 52 0.0 0.0 0.00 0.00 0.00 76 1016.7
20260831053930 75 87 0.0 0.0 0.00 0.00 0.00 76 1016.7
20260831053434 75 83 0.0 0.0 0.00 0.00 0.00 77 1016.8
20260831052927 74 43 0.0 0.0 0.00 0.00 0.00 77 1016.7
20260831052430 74 105 0.0 0.0 0.00 0.00 0.00 76 1016.6
20260831051934 75 111 0.0 0.0 0.00 0.00 0.00 77 1016.6
20260831051428 76 359 0.0 0.0 0.00 0.00 0.00 77 1016.6
20260831050928 76 114 0.0 0.0 0.00 0.00 0.00 78 1016.6
20260831050428 75 82 0.0 0.0 0.00 0.00 0.00 78 1016.6
20260831045931 75 90 0.0 0.0 0.00 0.00 0.00 78 1016.6
20260831045431 75 95 0.0 0.0 0.00 0.00 0.00 79 1016.6
20260831044928 75 93 0.0 0.0 0.00 0.00 0.00 79 1016.6
20260831044434 75 108 0.0 0.0 0.00 0.00 0.00 79 1016.5
20260831043928 74 127 0.0 0.0 0.00 0.00 0.00 78 1016.4
20260831043428 74 70 0.0 0.0 0.00 0.00 0.00 78 1016.5
20260831042928 74 83 0.0 0.0 0.00 0.00 0.00 78 1016.5
20260831042431 74 84 0.0 0.0 0.00 0.00 0.00 78 1016.5
20260831041934 74 118 0.0 0.0 0.00 0.00 0.00 79 1016.5
20260831041428 74 105 0.0 0.0 0.00 0.00 0.00 79 1016.4
20260831040428 75 77 0.0 0.0 0.00 0.00 0.00 80 1016.3
20260831035928 75 75 0.0 0.0 0.00 0.00 0.00 80 1016.3
20260831035431 75 69 0.0 0.0 0.00 0.00 0.00 79 1016.3
20260831034928 75 104 0.0 0.0 0.00 0.00 0.00 79 1016.4
20260831034431 75 114 0.0 0.0 0.00 0.00 0.00 79 1016.3
20260831033928 75 52 0.0 0.0 0.00 0.00 0.00 79 1016.4
20260831033428 75 64 0.0 0.0 0.00 0.00 0.00 79 1016.4
20260831032928 75 39 0.0 0.0 0.00 0.00 0.00 79 1016.5
20260831032437 75 89 0.0 0.0 0.00 0.00 0.00 78 1016.6
20260831031928 75 41 0.0 0.0 0.00 0.00 0.00 78 1016.6
20260831031428 75 83 0.0 0.0 0.00 0.00 0.00 78 1016.6
20260831030931 75 99 0.0 0.0 0.00 0.00 0.00 78 1016.6
20260831030428 74 107 0.0 0.0 0.00 0.00 0.00 78 1016.6
20260831025931 75 84 0.0 0.0 0.00 0.00 0.00 78 1016.6
20260831025434 75 110 0.0 0.0 0.00 0.00 0.00 79 1016.6
20260831024937 75 88 0.0 0.0 0.00 0.00 0.00 79 1016.6
20260831024428 75 104 0.0 0.0 0.00 0.00 0.00 79 1016.6
20260831023928 75 101 0.0 0.0 0.00 0.00 0.00 78 1016.7
20260831023428 75 100 0.0 0.0 0.00 0.00 0.00 77 1016.7
20260831022928 75 51 0.0 0.0 0.00 0.00 0.00 77 1016.6
20260831022428 75 119 0.0 0.0 0.00 0.00 0.00 77 1016.7
20260831021931 75 106 0.0 0.0 0.00 0.00 0.00 77 1016.7
20260831021428 75 33 0.0 0.0 0.00 0.00 0.00 76 1016.7
20260831020931 75 98 0.0 0.0 0.00 0.00 0.00 76 1016.7
20260831020425 75 108 0.0 0.0 0.00 0.00 0.00 76 1016.7
20260831015928 75 87 0.0 0.0 0.00 0.00 0.00 76 1016.8
20260831015431 75 88 0.0 0.0 0.00 0.00 0.00 77 1016.9
20260831014931 75 87 0.0 0.0 0.00 0.00 0.00 77 1017.0
20260831014431 75 100 0.0 0.0 0.00 0.00 0.00 78 1017.0
20260831013931 75 91 0.0 0.0 0.00 0.00 0.00 78 1017.0
20260831013425 75 64 0.0 0.0 0.00 0.00 0.00 78 1017.1
20260831012925 75 87 0.0 0.0 0.00 0.00 0.00 77 1017.0
20260831012434 75 60 0.0 0.0 0.00 0.00 0.00 77 1017.0
20260831011925 76 106 0.0 0.0 0.00 0.00 0.00 78 1017.0
20260831011425 76 106 0.0 0.0 0.00 0.00 0.00 78 1016.9
20260831010928 76 103 0.0 0.0 0.00 0.00 0.00 78 1017.0
20260831010425 76 68 0.0 0.0 0.00 0.00 0.00 78 1017.0
20260831005925 76 89 0.0 0.0 0.00 0.00 0.00 78 1017.0
20260831005428 76 91 0.0 0.0 0.00 0.00 0.00 77 1017.0
20260831004925 76 100 0.0 0.0 0.00 0.00 0.00 77 1017.0
20260831004428 76 114 0.0 0.0 0.00 0.00 0.00 77 1017.0
20260831003932 76 89 0.0 0.0 0.00 0.00 0.00 76 1017.0
20260831003425 76 109 0.0 0.0 0.00 0.00 0.00 76 1017.0
20260831002928 76 354 0.0 0.0 0.00 0.00 0.00 75 1017.0
20260831002425 76 91 0.0 0.0 0.00 0.00 0.00 76 1017.1
20260831001932 76 96 0.0 0.0 0.00 0.00 0.00 77 1017.0
20260831001425 76 109 0.0 0.0 0.00 0.00 0.00 77 1017.1
20260831000925 76 95 0.0 0.0 0.00 0.00 0.00 77 1017.0
20260831000426 76 91 0.0 0.0 0.00 0.00 0.00 77 1017.1
20260830235925 76 91 0.0 0.0 0.00 0.00 0.00 77 1017.1
20260830235429 76 76 0.0 0.0 0.00 0.00 0.00 77 1017.1
20260830234932 76 70 0.0 0.0 0.00 0.00 0.00 77 1017.0
20260830234435 76 91 0.0 0.0 0.00 0.00 0.00 77 1017.0
20260830233926 76 77 0.0 0.0 0.00 0.00 0.00 77 1017.0
20260830233426 76 104 0.0 0.0 0.00 0.00 0.00 78 1017.0
20260830232929 76 66 0.0 0.0 0.00 0.00 0.00 77 1016.9
20260830232432 76 104 0.0 0.0 0.00 0.00 0.00 77 1016.9
20260830231926 76 82 0.0 0.0 0.00 0.00 0.00 77 1016.9
20260830231429 76 102 0.0 0.0 0.00 0.00 0.00 77 1017.0
20260830230926 76 110 0.0 0.0 0.00 0.00 0.00 77 1017.0
20260830230429 76 68 0.0 0.0 0.00 0.00 0.00 77 1017.0
20260830225932 76 66 0.0 0.0 0.00 0.00 0.00 77 1017.0
20260830225426 76 125 0.0 0.0 0.00 0.00 0.00 78 1017.0
20260830224929 76 100 0.0 0.0 0.00 0.00 0.00 79 1017.0
20260830224426 76 119 0.0 0.0 0.00 0.00 0.00 80 1017.0
20260830223929 76 118 0.0 0.0 0.00 0.00 0.00 80 1017.1
20260830223432 76 120 0.0 0.0 0.00 0.00 0.00 80 1017.1
20260830222926 76 91 0.0 0.0 0.00 0.00 0.00 80 1017.0
20260830222426 76 80 0.0 0.0 0.00 0.00 0.00 80 1017.0
20260830221929 76 70 0.0 0.0 0.00 0.00 0.00 80 1017.0
20260830221432 76 98 0.0 0.0 0.00 0.00 0.00 81 1017.0
20260830220926 76 70 0.0 0.0 0.00 0.00 0.00 80 1017.0
20260830220429 77 78 0.0 0.0 0.00 0.00 0.00 80 1016.9
20260830215926 77 100 0.0 0.0 0.00 0.00 0.00 80 1017.0
20260830215426 77 94 0.0 0.0 0.00 0.00 0.00 80 1017.0
20260830214932 77 108 0.0 0.0 0.00 0.00 0.00 80 1016.9
20260830214435 77 112 0.0 0.0 0.00 0.00 0.00 80 1017.0
20260830213926 77 88 0.0 0.0 0.00 0.00 0.00 80 1016.9
20260830213426 77 100 0.0 0.0 0.00 0.00 0.00 80 1016.9
20260830212929 77 91 0.0 0.0 0.00 0.00 0.00 80 1016.8
20260830212426 77 110 0.0 0.0 0.00 0.00 0.00 80 1016.8
20260830211929 77 105 0.0 0.0 0.00 0.00 0.00 79 1016.7
20260830211426 77 103 0.0 0.0 0.00 0.00 0.00 80 1016.7
20260830210929 77 98 0.0 0.0 0.00 0.00 0.00 80 1016.7
20260830210426 77 93 0.0 0.0 0.00 0.00 0.00 79 1016.7
20260830205929 77 97 0.0 0.0 0.00 0.00 0.00 79 1016.7
20260830205429 78 87 0.0 0.0 0.00 0.00 0.00 79 1016.6
20260830204926 78 109 0.0 0.0 0.00 0.00 0.00 79 1016.7
20260830204429 78 77 0.0 0.0 0.00 0.00 0.00 79 1016.6
20260830203926 78 96 0.0 0.0 0.00 0.00 0.00 79 1016.6
20260830203426 78 83 0.0 0.0 0.00 0.00 0.00 79 1016.6
20260830202929 78 93 0.0 0.0 0.00 0.00 0.00 78 1016.7
20260830202426 78 94 0.0 0.0 0.00 0.00 0.00 78 1016.7
20260830201926 78 79 0.0 0.0 0.00 0.00 0.00 78 1016.7
20260830201429 78 82 0.0 0.0 0.00 0.00 0.00 78 1016.7
20260830200926 79 79 0.0 0.0 0.00 0.00 0.00 77 1016.6
20260830200429 79 222 0.0 0.0 0.00 0.00 0.00 77 1016.6
20260830195926 79 222 0.0 0.0 0.00 0.00 0.00 77 1016.5
20260830195426 79 222 0.0 0.0 0.00 0.00 0.00 77 1016.5
20260830194929 79 222 0.0 0.0 0.00 0.00 0.00 77 1016.5
20260830194429 79 222 0.0 0.0 0.00 0.00 0.00 77 1016.5
20260830193932 79 222 0.0 0.0 0.00 0.00 0.00 77 1016.5
20260830193426 79 222 0.0 0.0 0.00 0.00 0.00 77 1016.5
20260830192926 79 222 0.0 0.0 0.00 0.00 0.00 76 1016.5
20260830192426 80 222 0.0 0.0 0.00 0.00 0.00 76 1016.4
20260830191929 80 222 0.0 0.0 0.00 0.00 0.00 76 1016.3
20260830191432 80 223 0.0 0.0 0.00 0.00 0.00 76 1016.3
20260830190935 79 224 0.0 0.0 0.00 0.00 0.00 75 1016.2
20260830190426 79 224 0.0 0.0 0.00 0.00 0.00 74 1016.0
20260830185926 80 224 0.0 0.0 0.00 0.00 0.00 74 1016.0
20260830185432 80 224 0.0 0.0 0.00 0.00 0.00 74 1016.0
20260830184926 80 224 0.0 0.0 0.00 0.00 0.00 75 1016.0
20260830184426 80 224 0.0 0.0 0.00 0.00 0.00 74 1016.0
20260830183926 80 224 0.0 0.0 0.00 0.00 0.00 74 1016.0
20260830183429 80 224 0.0 0.0 0.00 0.00 0.00 74 1016.0
20260830182932 80 224 0.0 0.0 0.00 0.00 0.00 74 1015.9
20260830182426 80 222 0.0 0.0 0.00 0.00 0.00 73 1015.8
20260830181926 80 222 0.0 0.0 0.00 0.00 0.00 73 1015.8
20260830181429 80 222 0.0 0.0 0.00 0.00 0.00 73 1015.7
20260830180932 81 222 0.0 0.0 0.00 0.00 0.00 72 1015.7
20260830180429 81 221 0.0 0.0 0.00 0.00 0.00 71 1015.7
20260830175932 81 221 0.0 0.0 0.00 0.00 0.00 71 1015.6
20260830175426 81 221 0.0 0.0 0.00 0.00 0.00 70 1015.6
20260830174929 82 221 0.0 0.0 0.00 0.00 0.00 70 1015.7
20260830174426 82 221 0.0 0.0 0.00 0.00 0.00 70 1015.7
20260830173926 82 221 0.0 0.0 0.00 0.00 0.00 69 1015.8
20260830173429 82 220 0.0 0.0 0.00 0.00 0.00 70 1015.7
20260830172926 82 220 0.0 0.0 0.00 0.00 0.00 70 1015.7
20260830172429 82 220 0.0 0.0 0.00 0.00 0.00 70 1015.7
20260830171926 82 221 0.0 0.0 0.00 0.00 0.00 70 1015.7
20260830171429 82 218 0.0 0.0 0.00 0.00 0.00 69 1015.7
20260830170926 82 199 0.0 0.0 0.00 0.00 0.00 69 1015.7
20260830170429 82 219 0.0 0.0 0.00 0.00 0.00 69 1015.7
20260830165926 82 200 0.0 0.0 0.00 0.00 0.00 69 1015.8
20260830165429 82 240 0.0 0.0 0.00 0.00 0.00 69 1015.8
20260830164926 82 218 0.0 0.0 0.00 0.00 0.00 68 1015.7
20260830164429 82 248 0.0 0.0 0.00 0.00 0.00 69 1015.8
20260830163926 82 262 0.0 0.0 0.00 0.00 0.00 70 1015.7
20260830163429 81 212 0.0 0.0 0.00 0.00 0.00 71 1015.7
20260830162929 81 205 0.0 0.0 0.00 0.00 0.00 71 1015.7
20260830162429 82 231 0.0 0.0 0.00 0.00 0.00 70 1015.7
20260830161932 82 237 0.0 0.0 0.00 0.00 0.00 70 1015.7
20260830161432 82 226 0.0 0.0 0.00 0.00 0.00 70 1015.7
20260830160932 82 217 0.0 0.0 0.00 0.00 0.00 69 1015.6
20260830160435 83 228 0.0 0.0 0.00 0.00 0.00 68 1015.6
20260830155926 82 242 0.0 0.0 0.00 0.00 0.00 69 1015.7
20260830155429 82 211 0.0 0.0 0.00 0.00 0.00 70 1015.7
20260830154929 82 220 0.0 0.0 0.00 0.00 0.00 70 1015.7
20260830154426 82 236 0.0 0.0 0.00 0.00 0.00 70 1015.8
20260830153926 82 227 0.0 0.0 0.00 0.00 0.00 70 1015.9
20260830153426 82 224 0.0 0.0 0.00 0.00 0.00 69 1015.9
20260830152926 83 224 0.0 0.0 0.00 0.00 0.00 69 1015.8
20260830152432 83 201 0.0 0.0 0.00 0.00 0.00 69 1015.8
20260830151926 83 227 0.0 0.0 0.00 0.00 0.00 67 1015.9
20260830151429 83 256 0.0 0.0 0.00 0.00 0.00 68 1016.0
20260830150926 83 237 0.0 0.0 0.00 0.00 0.00 69 1016.0
20260830150426 83 260 0.0 0.0 0.00 0.00 0.00 68 1015.9
20260830145929 83 204 0.0 0.0 0.00 0.00 0.00 69 1016.0
20260830145426 83 219 0.0 0.0 0.00 0.00 0.00 69 1016.0
20260830144926 83 204 0.0 0.0 0.00 0.00 0.00 69 1016.0
20260830144426 83 198 0.0 0.0 0.00 0.00 0.00 67 1016.0
20260830143926 83 202 0.0 0.0 0.00 0.00 0.00 68 1016.0
20260830143429 83 251 0.0 0.0 0.00 0.00 0.00 68 1016.1
20260830142929 83 222 0.0 0.0 0.00 0.00 0.00 68 1016.0
20260830142426 83 213 0.0 0.0 0.00 0.00 0.00 68 1016.0
20260830141929 83 210 0.0 0.0 0.00 0.00 0.00 68 1016.1
20260830141426 82 223 0.0 0.0 0.00 0.00 0.00 70 1016.2
20260830140926 82 193 0.0 0.0 0.00 0.00 0.00 71 1016.2
20260830140429 82 226 0.0 0.0 0.00 0.00 0.00 69 1016.2
20260830135935 82 242 0.0 0.0 0.00 0.00 0.00 69 1016.3
20260830135426 83 245 0.0 0.0 0.00 0.00 0.00 68 1016.4
20260830134926 83 235 0.0 0.0 0.00 0.00 0.00 68 1016.3
20260830134426 83 218 0.0 0.0 0.00 0.00 0.00 67 1016.3
20260830133926 82 179 0.0 0.0 0.00 0.00 0.00 68 1016.4
20260830133426 82 241 0.0 0.0 0.00 0.00 0.00 68 1016.4
20260830132926 83 206 0.0 0.0 0.00 0.00 0.00 66 1016.4
20260830132429 83 209 0.0 0.0 0.00 0.00 0.00 67 1016.4
20260830131926 83 190 0.0 0.0 0.00 0.00 0.00 67 1016.5
20260830131429 83 214 0.0 0.0 0.00 0.00 0.00 67 1016.5
20260830130929 83 234 0.0 0.0 0.00 0.00 0.00 67 1016.5
20260830130426 83 206 0.0 0.0 0.00 0.00 0.00 67 1016.5
20260830125929 83 239 0.0 0.0 0.00 0.00 0.00 67 1016.6
20260830125432 83 193 0.0 0.0 0.00 0.00 0.00 67 1016.6
20260830124926 83 262 0.0 0.0 0.00 0.00 0.00 67 1016.6
20260830124429 83 255 0.0 0.0 0.00 0.00 0.00 67 1016.6
20260830123926 83 200 0.0 0.0 0.00 0.00 0.00 67 1016.7
20260830123429 83 241 0.0 0.0 0.00 0.00 0.00 68 1016.6
20260830122926 83 241 0.0 0.0 0.00 0.00 0.00 67 1016.7
20260830122426 83 206 0.0 0.0 0.00 0.00 0.00 66 1016.7
20260830121929 83 225 0.0 0.0 0.00 0.00 0.00 66 1016.7
20260830121432 84 174 0.0 0.0 0.00 0.00 0.00 66 1016.6
20260830120926 83 227 0.0 0.0 0.00 0.00 0.00 67 1016.6
20260830120426 83 225 0.0 0.0 0.00 0.00 0.00 67 1016.6
20260830115926 83 229 0.0 0.0 0.00 0.00 0.00 66 1016.6
20260830115430 83 241 0.0 0.0 0.00 0.00 0.00 66 1016.7
20260830114926 83 248 0.0 0.0 0.00 0.00 0.00 65 1016.7
20260830114430 83 204 0.0 0.0 0.00 0.00 0.00 65 1016.7
20260830113926 83 236 0.0 0.0 0.00 0.00 0.00 63 1016.7
20260830113427 83 222 0.0 0.0 0.00 0.00 0.00 66 1016.8
20260830112927 83 213 0.0 0.0 0.00 0.00 0.00 64 1016.8
20260830112427 83 211 0.0 0.0 0.00 0.00 0.00 66 1016.9
20260830111926 83 212 0.0 0.0 0.00 0.00 0.00 64 1016.9
20260830111430 83 212 0.0 0.0 0.00 0.00 0.00 63 1016.9
20260830110927 83 198 0.0 0.0 0.00 0.00 0.00 63 1016.9
20260830110427 83 191 0.0 0.0 0.00 0.00 0.00 64 1016.9
20260830105930 83 209 0.0 0.0 0.00 0.00 0.00 63 1016.9